User: anonymous   Login
Location: La Comballaz
(46.3780°N, 7.0817°E)
Time: 03:05:20
(UTC+00:00)
Language:

XW-2D - Orbit

View from above orbital plane
View from above orbital plane
View from above satellite
View from above satellite

Ground track
Ground track

The orbit data is extracted from the following two-line orbital elements,

1 40907U 15049J   22343.77591992  .00008315  00000-0  36501-3 0  9997
2 40907  97.4942 346.2148 0014237  99.0199 348.0516 15.22110775399615
Epoch (UTC): 09 December 2022 18:37:19
Eccentricity: 0.0014237
inclination: 97.4942°
perigee height: 489 km
apogee height: 509 km
right ascension of ascending node: 346.2148°
argument of perigee: 99.0199°
revolutions per day: 15.22110775
mean anomaly at epoch: 348.0516°
orbit number at epoch: 39961

The dashed part of the orbit path shows where the satellite is in the earth's shadow,  

DLR